User: anonymous   Login
Location: Unspecified
(0.0000°N, 0.0000°E)
Time: 19:12:28
(UTC+00:00)
Language:

LANDSAT 8 - Orbit

View from above orbital plane
View from above orbital plane
View from above satellite
View from above satellite

Ground track
Ground track

The orbit data is extracted from the following two-line orbital elements,

1 39084U 13008A   14295.30012900  .00000668  00000-0  15824-3 0  6273
2 39084 098.2100 003.7798 0000993 074.7126 285.4179 14.57116200 89963
Epoch (UTC): 22 October 2014 07:12:11
Eccentricity: 0.0000993
inclination: 98.2100°
perigee height: 702 km
apogee height: 703 km
right ascension of ascending node: 3.7798°
argument of perigee: 74.7126°
revolutions per day: 14.57116200
mean anomaly at epoch: 285.4179°
orbit number at epoch: 8996

The dashed part of the orbit path shows where the satellite is in the earth's shadow,  

DLR